Regional Weather Roundup
Issued by NWS Cleveland, OH

Home | Current Version | Previous Version | Graphics & Text | Print | Product List | Glossary On
Versions: 1 2 3 4 5 6 7 8 9 10 11 12 13 14 15 16 17 18 19 20 21 22 23 24 25 26 27 28 29 30 31 32 33 34 35 36 37 38 39 40 41 42 43 44 45 46 47 48 49 50
000
ASUS41 KCLE 212112
RWRCLE
OHIO REGIONAL WEATHER ROUNDUP
NATIONAL WEATHER SERVICE WILMINGTON, OH
500 PM EDT THU SEP 21 2017

NOTE: "FAIR" INDICATES FEW OR NO CLOUDS BELOW 12,000 FEET WITH NO
SIGNIFICANT WEATHER AND/OR OBSTRUCTIONS TO VISIBILITY.

OHZ001>008-015>018-024>027-034-035-043-044-212200-
   NORTHWEST OHIO

CITY           SKY/WX    TMP DP  RH WIND       PRES   REMARKS
DEFIANCE       FAIR      90  68  48 CALM      30.03F HX  94
FINDLAY        FAIR      90  67  46 SW5       30.03F HX  93
TOLEDO EXPRESS FAIR      92  71  50 VRB3      30.02F HX  98
TOLEDO EXEC    FAIR      92  69  47 CALM      30.03F HX  97
LIMA           FAIR      89  67  47 CALM      30.04F HX  92
$$

OHZ009>014-019>023-028>033-038-089-212200-
   NORTHEAST OHIO

CITY           SKY/WX    TMP DP  RH WIND       PRES   REMARKS
CLE-HOPKINS    FAIR      89  66  46 N12       30.08F HX  91
CLE-LAKEFRONT  FAIR      78  69  73 NE10      30.06F
CUY CO. ARPT   SUNNY     86  61  42 NW8       30.09S
LORAIN-ELYRIA  FAIR      87  63  44 NE6       30.06F
ASHTABULA      FAIR      83  61  47 VRB6      30.10S
AKRON-CANTON   FAIR      89  59  36 NE3       30.08F
WOOSTER        FAIR      86  63  45 CALM      30.08F
MANSFIELD      FAIR      88  64  44 CALM      30.08F
YOUNGSTOWN     FAIR      85  62  46 CALM      30.09S
$$

OHZ042-051>053-060>062-070>072-077>081-212200-
  SOUTHWEST OHIO

CITY           SKY/WX    TMP DP  RH WIND       PRES   REMARKS
CINC-COVINGTON FAIR      87  71  58 SW3       30.05F HX  93
CINC-LUNKEN    FAIR      92  68  45 NE3       30.03F HX  96
HAMILTON       FAIR      90  70  51 CALM      30.04F HX  95
DAYTON         FAIR      88  66  48 SW6       30.06F HX  90
WRIGHT-PAT AFB PTSUNNY   90  63  40 SW3       30.04F HX  91
DAYTON GENERAL FAIR      88  68  51 CALM      30.04F HX  91
WILMINGTON     FAIR      89  67  47 N3        30.06F HX  92
$$

OHZ036-037-039>041-045>050-054>059-063>069-073>076-082>088-212200-
  CENTRAL AND SOUTHEAST OHIO

CITY           SKY/WX    TMP DP  RH WIND       PRES   REMARKS
COLUMBUS       FAIR      89  64  43 NE5       30.05F HX  90
OSU AIRPORT    FAIR      88  66  48 E3        30.05F HX  90
BOLTON FIELD   SUNNY     88  66  48 W5        30.06F HX  90
RICKENBACK AFB FAIR      87  65  48 E3        30.04F
NEWARK         FAIR      87  62  43 SE5       30.06F
MARION         FAIR      88  64  44 SW6       30.05F
LANCASTER      FAIR      87  63  44 CALM      30.07F
ZANESVILLE     PTSUNNY   86  63  45 CALM      30.07F
NEW PHILLY     FAIR      88  62  41 N3        30.08S
$$



USA.gov is the U.S. government's official web portal to all federal, state and local government web resources and services.